This is the latest recevied weather packets stored in our database for station/object KA7EII-13. If no packets are shown the sender has not sent any weather packets the latest 10 day(s).
| Time | Temp. | Humidity | Pressure | Rain* | Wind** | Luminosity | Snow |
|---|---|---|---|---|---|---|---|
| 1778195212 | 21.11° C | 31% | 1100.8 hPa | 0 mm | - | 178 W/m² | - |
| 1778194910 | 21.11° C | 31% | 1101.2 hPa | 0 mm | - | 108 W/m² | - |
| 1778194608 | 21.11° C | 32% | 1101.1 hPa | 0 mm | - | 144 W/m² | - |
| 1778194305 | 21.11° C | 32% | 1101.2 hPa | 0 mm | - | 167 W/m² | - |
| 1778194001 | 21.11° C | 31% | 1101.2 hPa | 0 mm | - | 167 W/m² | - |
| 1778193698 | 21.67° C | 31% | 1101.3 hPa | 0 mm | - | 140 W/m² | - |
| 1778193394 | 21.67° C | 31% | 1101.4 hPa | 0 mm | - | 243 W/m² | - |
| 1778193091 | 21.67° C | 30% | 1101.4 hPa | 0 mm | - | 501 W/m² | - |
| 1778192788 | 22.78° C | 29% | 1101.5 hPa | 0 mm | - | 112 W/m² | - |
| 1778192484 | 22.78° C | 28% | 1101.3 hPa | 0 mm | - | 540 W/m² | - |
| 1778192180 | 22.78° C | 28% | 1101.3 hPa | 0 mm | - | 579 W/m² | - |
| 1778191877 | 23.33° C | 28% | 1101.6 hPa | 0 mm | - | 610 W/m² | - |
| 1778191574 | 22.78° C | 27% | 1101.9 hPa | 0 mm | - | 616 W/m² | - |
| 1778191272 | 23.33° C | 28% | 1101.9 hPa | 0 mm | - | 602 W/m² | - |
| 1778190968 | 23.33° C | 27% | 1101.9 hPa | 0 mm | - | 622 W/m² | - |
| 1778190666 | 22.78° C | 30% | 1101.7 hPa | 0 mm | - | 629 W/m² | - |
| 1778190363 | 22.22° C | 29% | 1102 hPa | 0 mm | - | 628 W/m² | - |
| 1778190059 | 22.22° C | 29% | 1102 hPa | 0 mm | - | 608 W/m² | - |
| 1778189755 | 22.78° C | 28% | 1102 hPa | 0 mm | - | 612 W/m² | - |
| 1778189452 | 22.78° C | 29% | 1102 hPa | 0 mm | - | 622 W/m² | - |
| 1778189148 | 22.22° C | 31% | 1102.2 hPa | 0 mm | - | 707 W/m² | - |
| 1778188845 | 21.67° C | 31% | 1102.2 hPa | 0 mm | - | 738 W/m² | - |
| 1778188542 | 22.22° C | 30% | 1102.2 hPa | 0 mm | - | 193 W/m² | - |
| 1778188238 | 22.22° C | 31% | 1102.2 hPa | 0 mm | - | 779 W/m² | - |
| 1778187936 | 22.22° C | 32% | 1102.4 hPa | 0 mm | - | 206 W/m² | - |
* Rain latest hour (hover to see other rain measurements)
** Current wind speed in m/s (hover to see current wind gust speed)